Stündliche Wetter Otoki

Heute, 11 April, Sonntag

Zeit Temperatur Niederschläge Wind Luftdruck Luftfeuchtigkeit
00:00 +4°C° 0.1 mm 4 m/S 757 mmHg 90%
01:00 +4°C° 0 mm 4 m/S 757 mmHg 91%
02:00 +4°C° 0.5 mm 4 m/S 756 mmHg 92%
03:00 +4°C° 0.5 mm 4 m/S 756 mmHg 93%
04:00 +3°C° 0.5 mm 5 m/S 755 mmHg 94%
05:00 +3°C° 0.6 mm 5 m/S 755 mmHg 94%
06:00 +5°C° 0.6 mm 5 m/S 755 mmHg 94%
07:00 +5°C° 0 mm 5 m/S 754 mmHg 94%
08:00 +7°C° 0.1 mm 5 m/S 754 mmHg 87%
09:00 +9°C° 0.1 mm 5 m/S 754 mmHg 80%
10:00 +12°C° 0.1 mm 5 m/S 753 mmHg 73%
11:00 +13°C° 0 mm 5 m/S 753 mmHg 66%
12:00 +15°C° 0 mm 5 m/S 753 mmHg 59%
13:00 +17°C° 0 mm 5 m/S 753 mmHg 52%
14:00 +18°C° 0 mm 4 m/S 753 mmHg 53%
15:00 +18°C° 0 mm 4 m/S 752 mmHg 54%
16:00 +18°C° 0 mm 4 m/S 752 mmHg 56%
17:00 +17°C° 0 mm 3 m/S 752 mmHg 62%
18:00 +14°C° 0 mm 3 m/S 752 mmHg 68%
19:00 +12°C° 0 mm 3 m/S 752 mmHg 74%
20:00 +12°C° 0 mm 3 m/S 753 mmHg 79%
21:00 +11°C° 0 mm 3 m/S 753 mmHg 83%
22:00 +10°C° 0 mm 3 m/S 754 mmHg 88%
23:00 +8°C° 0.1 mm 4 m/S 754 mmHg 88%

Morgen, 12 April, Montag

Zeit Temperatur Niederschläge Wind Luftdruck Luftfeuchtigkeit
00:00 +6°C° 0.1 mm 5 m/S 755 mmHg 89%
01:00 +5°C° 0.1 mm 5 m/S 756 mmHg 89%
02:00 +3°C° 0.1 mm 5 m/S 757 mmHg 88%
03:00 +3°C° 0.1 mm 5 m/S 757 mmHg 88%
04:00 +2°C° 0.1 mm 5 m/S 758 mmHg 87%
05:00 +2°C° 0 mm 5 m/S 758 mmHg 84%
06:00 +1°C° 0 mm 5 m/S 759 mmHg 82%
07:00 +1°C° 0 mm 5 m/S 760 mmHg 79%
08:00 +1°C° 0 mm 5 m/S 760 mmHg 77%
09:00 +2°C° 0 mm 5 m/S 761 mmHg 74%
10:00 +2°C° 0 mm 5 m/S 762 mmHg 72%
11:00 +3°C° 0 mm 5 m/S 762 mmHg 66%
12:00 +5°C° 0 mm 5 m/S 762 mmHg 61%
13:00 +6°C° 0 mm 5 m/S 762 mmHg 56%
14:00 +6°C° 0 mm 5 m/S 762 mmHg 54%
15:00 +6°C° 0 mm 4 m/S 762 mmHg 52%
16:00 +6°C° 0 mm 4 m/S 763 mmHg 50%
17:00 +7°C° 0 mm 3 m/S 763 mmHg 53%
18:00 +6°C° 0 mm 2 m/S 763 mmHg 57%
19:00 +6°C° 0 mm 1 m/S 764 mmHg 60%
20:00 +6°C° 0 mm 1 m/S 764 mmHg 62%
21:00 +5°C° 0 mm 1 m/S 764 mmHg 63%
22:00 +5°C° 0 mm 1 m/S 764 mmHg 64%
23:00 +4°C° 0 mm 1 m/S 764 mmHg 66%

übermorgen, 13 April, Dienstag

Zeit Temperatur Niederschläge Wind Luftdruck Luftfeuchtigkeit
00:00 +3°C° 0 mm 2 m/S 765 mmHg 68%
01:00 +3°C° 0 mm 2 m/S 765 mmHg 70%
02:00 +2°C° 0 mm 2 m/S 765 mmHg 73%
03:00 +1°C° 0 mm 2 m/S 765 mmHg 76%
04:00 +1°C° 0 mm 2 m/S 765 mmHg 79%
05:00 0°C° 0 mm 3 m/S 765 mmHg 77%
06:00 +1°C° 0 mm 3 m/S 766 mmHg 75%
07:00 +1°C° 0 mm 3 m/S 766 mmHg 74%
08:00 +3°C° 0 mm 4 m/S 766 mmHg 67%
09:00 +4°C° 0 mm 4 m/S 766 mmHg 61%
10:00 +6°C° 0 mm 5 m/S 766 mmHg 54%
11:00 +7°C° 0 mm 5 m/S 766 mmHg 50%
12:00 +8°C° 0 mm 5 m/S 766 mmHg 46%
13:00 +8°C° 0 mm 5 m/S 766 mmHg 41%
14:00 +8°C° 0 mm 5 m/S 766 mmHg 42%
15:00 +8°C° 0 mm 5 m/S 765 mmHg 43%
16:00 +8°C° 0 mm 4 m/S 765 mmHg 43%
17:00 +6°C° 0 mm 4 m/S 766 mmHg 52%
18:00 +5°C° 0 mm 3 m/S 766 mmHg 60%
19:00 +3°C° 0 mm 3 m/S 766 mmHg 69%
20:00 +3°C° 0 mm 3 m/S 766 mmHg 72%
21:00 +2°C° 0 mm 3 m/S 766 mmHg 76%
22:00 +1°C° 0 mm 3 m/S 766 mmHg 79%
23:00 +1°C° 0 mm 3 m/S 766 mmHg 81%

14 April, Mittwoch

Zeit Temperatur Niederschläge Wind Luftdruck Luftfeuchtigkeit
00:00 +1°C° 0 mm 3 m/S 766 mmHg 83%
01:00 0°C° 0 mm 3 m/S 766 mmHg 85%
02:00 0°C° 0 mm 3 m/S 766 mmHg 87%
03:00 -1°C° 0 mm 3 m/S 766 mmHg 90%
04:00 -1°C° 0 mm 3 m/S 766 mmHg 92%
05:00 0°C° 0 mm 3 m/S 766 mmHg 89%
06:00 0°C° 0 mm 3 m/S 766 mmHg 86%
07:00 0°C° 0 mm 4 m/S 766 mmHg 82%
08:00 +1°C° 0 mm 4 m/S 766 mmHg 74%
09:00 +4°C° 0 mm 4 m/S 766 mmHg 66%
10:00 +5°C° 0 mm 4 m/S 766 mmHg 58%
11:00 +6°C° 0.1 mm 4 m/S 766 mmHg 57%
12:00 +6°C° 0.1 mm 4 m/S 766 mmHg 56%
13:00 +7°C° 0.1 mm 4 m/S 765 mmHg 54%
14:00 +7°C° 0.1 mm 4 m/S 765 mmHg 58%
15:00 +6°C° 0.1 mm 5 m/S 765 mmHg 62%
16:00 +6°C° 0.1 mm 5 m/S 765 mmHg 65%
17:00 +5°C° 0 mm 5 m/S 765 mmHg 67%
18:00 +3°C° 0 mm 5 m/S 766 mmHg 68%
19:00 +2°C° 0 mm 5 m/S 766 mmHg 69%
20:00 +1°C° 0 mm 5 m/S 766 mmHg 72%
21:00 +1°C° 0 mm 4 m/S 766 mmHg 75%
22:00 0°C° 0 mm 4 m/S 766 mmHg 78%
23:00 0°C° 0 mm 4 m/S 766 mmHg 78%

15 April, Donnerstag

Zeit Temperatur Niederschläge Wind Luftdruck Luftfeuchtigkeit
00:00 0°C° 0 mm 4 m/S 766 mmHg 78%
01:00 -1°C° 0 mm 4 m/S 766 mmHg 78%
02:00 0°C° 0 mm 4 m/S 766 mmHg 77%
03:00 0°C° 0 mm 4 m/S 766 mmHg 76%
04:00 0°C° 0 mm 4 m/S 766 mmHg 75%
05:00 0°C° 0 mm 5 m/S 766 mmHg 74%
06:00 +1°C° 0 mm 5 m/S 767 mmHg 72%
07:00 +1°C° 0 mm 6 m/S 767 mmHg 70%
08:00 +2°C° 0 mm 6 m/S 767 mmHg 64%
09:00 +3°C° 0 mm 6 m/S 767 mmHg 59%
10:00 +4°C° 0 mm 6 m/S 767 mmHg 53%
11:00 +4°C° 0 mm 6 m/S 766 mmHg 52%
12:00 +5°C° 0 mm 6 m/S 766 mmHg 51%
13:00 +7°C° 0 mm 6 m/S 766 mmHg 50%
14:00 +6°C° 0 mm 7 m/S 766 mmHg 52%
15:00 +6°C° 0 mm 7 m/S 766 mmHg 53%
16:00 +6°C° 0 mm 7 m/S 766 mmHg 55%
17:00 +5°C° 0 mm 7 m/S 766 mmHg 58%
18:00 +4°C° 0 mm 6 m/S 766 mmHg 61%
19:00 +3°C° 0 mm 6 m/S 766 mmHg 65%
20:00 +2°C° 0 mm 6 m/S 767 mmHg 70%
21:00 +2°C° 0 mm 5 m/S 767 mmHg 74%
22:00 +1°C° 0 mm 5 m/S 767 mmHg 79%
23:00 +1°C° 0 mm 5 m/S 767 mmHg 83%

16 April, Freitag

Zeit Temperatur Niederschläge Wind Luftdruck Luftfeuchtigkeit
00:00 0°C° 0 mm 4 m/S 767 mmHg 87%
01:00 0°C° 0 mm 4 m/S 767 mmHg 91%
02:00 -1°C° 0 mm 4 m/S 767 mmHg 92%
03:00 -1°C° 0 mm 4 m/S 767 mmHg 94%
04:00 -1°C° 0 mm 4 m/S 767 mmHg 95%
05:00 0°C° 0 mm 4 m/S 767 mmHg 92%
06:00 0°C° 0 mm 4 m/S 767 mmHg 89%
07:00 +1°C° 0 mm 5 m/S 767 mmHg 85%
08:00 +3°C° 0 mm 5 m/S 767 mmHg 75%
09:00 +6°C° 0 mm 5 m/S 767 mmHg 65%
10:00 +8°C° 0 mm 6 m/S 767 mmHg 54%
11:00 +8°C° 0 mm 5 m/S 767 mmHg 53%
12:00 +9°C° 0 mm 5 m/S 767 mmHg 53%
13:00 +9°C° 0 mm 5 m/S 766 mmHg 52%
14:00 +9°C° 0 mm 5 m/S 766 mmHg 56%
15:00 +10°C° 0 mm 4 m/S 766 mmHg 60%
16:00 +10°C° 0 mm 4 m/S 766 mmHg 64%
17:00 +8°C° 0 mm 4 m/S 766 mmHg 68%
18:00 +7°C° 0 mm 4 m/S 767 mmHg 72%
19:00 +6°C° 0 mm 4 m/S 767 mmHg 76%
20:00 +5°C° 0 mm 4 m/S 767 mmHg 78%
21:00 +5°C° 0 mm 4 m/S 767 mmHg 81%
22:00 +4°C° 0 mm 4 m/S 768 mmHg 83%
23:00 +4°C° 0 mm 3 m/S 768 mmHg 85%
Mehr zeigen

Wir brauchen deine Erlaubnis

Meteoprog und unser Service Anbieter werden persönliche Daten aufbewahren, so wie Cookies, Geräte Bezeichnung oder ähnliche Technologien von deinem Gerät und Prozess, so wie Persönliche Daten Inhalte und Werbungen, genauso wie social Media und den Verkehr zu analysieren.

  • Aufbewahrung und/oder Zugang zu deiner Geräte Informationen.

    Cookies, Geräte Bezeichnung oder andere Informationen, können aufbewahrt oder Zugang zu deinem Gerät erhalten, für den Grund, der oben angegeben wird.

  • Personalisierte Werbung und Inhalte, Messungen, Einblick in das Publikum und Produkt Entwicklung.

    Werbungen und Inhalte können personalisiert werden, basierend auf ein Profil. Mehr Daten können besser personalisierte Werbungen und Inhalte hinzufügen. Werbung und Inhalte können gezeigt und gemessen werden. Einblicke über das Publikum, welche die Werbung gesehen haben und den Inhalt, können abgeleitet werden. So wie Daten können genutzt werden, um es zu verbessern oder die Benutzer Erfahrung zu verbessern das System und die Software.

Wenn du “Ich stimme zu” klickst, erlaubst du uns, die Cookies zu benutzen die Geräte Bezeichnung, den Web oder ähnliche Technologien zu benutzen. Deine Settings, können in deinem Gerät bei deinem Browser geändert werden.

Für den bestimmten Zweck, berechtigten Interessen beruhen darauf, mehr als auf den Inhalt. Du kannst mehr darüber in unseren Privaten und Cookie Politik lesen.